Ellington Field, TX

2:30 AM CST on December 06, 2019 (GMT -0600)
Ellington

Weather History for KEFD - November, 2019

Change the Weather History Date:

Saturday, November 16, 2019

  Actual Average Record
Temperature  
Mean Temperature 50 °F -  
Max Temperature 62 °F 70 °F 86 °F (2011)
Min Temperature 37 °F 52 °F 35 °F (1997)
Degree Days  
Heating Degree Days 16    
Moisture  
Dew Point 38 °F    
Average Humidity 69    
Maximum Humidity 100    
Minimum Humidity 39    
Precipitation  
Precipitation 0.00 in - - ()
Sea Level Pressure  
Sea Level Pressure 30.19 in    
Wind  
Wind Speed 1 mph ()    
Max Wind Speed 9 mph    
Max Gust Speed -    
Visibility 10.0 miles    
Events      
Averages and records for this station are not official NWS values.
T = Trace of Precipitation, MM = Missing Value Source: Averaged Metar Reports

Daily Weather History Graph

Daily Weather History Graph

Search for Another Location

Airport or City:

Astronomy

Nov. 16, 2019 Rise Set
Actual Time 6:45 AM CST 5:24 PM CST
Civil Twilight 6:20 AM CST 5:50 PM CST
Nautical Twilight 5:51 AM CST 6:18 PM CST
Astronomical Twilight 5:23 AM CST 6:47 PM CST
Moon 9:06 PM CST (11/16) 10:32 AM CST (11/16)
Length of Visible Light 11h 29m
Length of Day
10h 39m
Waning Gibbous, 82% of the Moon is Illuminated
Nov 16
Waning Gibbous
Nov 19
Last Quarter
Nov 26
New
Dec 4
First Quarter
Dec 11
Full

Hourly Weather History & Observations

Time (CST) Temp. Windchill Dew Point Humidity Pressure Visibility Wind Dir Wind Speed Gust Speed Precip Events Conditions
12:50 AM 41.0 °F - 37.4 °F 87% 30.27 in 10.0 mi Calm Calm - N/A   Clear
1:50 AM 39.2 °F - 37.4 °F 93% 30.25 in 10.0 mi Calm Calm - N/A   Clear
2:50 AM 41.0 °F - 39.2 °F 93% 30.24 in 10.0 mi Calm Calm - N/A   Clear
3:50 AM 41.0 °F - 37.4 °F 87% 30.24 in 10.0 mi Calm Calm - N/A   Clear
4:50 AM 41.0 °F - 39.2 °F 93% 30.25 in 10.0 mi Calm Calm - N/A   Clear
5:50 AM 39.2 °F - 37.4 °F 93% 30.26 in 10.0 mi Calm Calm - N/A   Clear
6:50 AM 37.4 °F - 37.4 °F 100% 30.26 in 10.0 mi Calm Calm - N/A   Clear
7:50 AM 42.8 °F 40.1 °F 39.2 °F 87% 30.28 in 10.0 mi NE 4.6 mph - N/A   Partly Cloudy
9:50 AM 53.6 °F - 37.4 °F 54% 30.29 in 10.0 mi East 6.9 mph - N/A   Partly Cloudy
10:50 AM 55.4 °F - 35.6 °F 47% 30.27 in 10.0 mi NE 9.2 mph - N/A   Partly Cloudy
11:50 AM 57.2 °F - 35.6 °F 44% 30.23 in 10.0 mi NNW 3.5 mph - N/A   Partly Cloudy
12:50 PM 53.6 °F - 35.6 °F 51% 30.20 in 10.0 mi SW 3.5 mph - N/A   Scattered Clouds
1:50 PM 59.0 °F - 37.4 °F 45% 30.15 in 10.0 mi ESE 3.5 mph - N/A   Scattered Clouds
2:50 PM 62.6 °F - 37.4 °F 39% 30.11 in 10.0 mi Calm Calm - N/A   Mostly Cloudy
3:50 PM 60.8 °F - 37.4 °F 42% 30.11 in 10.0 mi East 3.5 mph - N/A   Scattered Clouds
4:50 PM 59.0 °F - 35.6 °F 42% 30.11 in 10.0 mi SE 5.8 mph - N/A   Scattered Clouds
5:50 PM 55.4 °F - 37.4 °F 51% 30.11 in 10.0 mi Calm Calm - N/A   Scattered Clouds
7:50 PM 53.6 °F - 39.2 °F 58% 30.12 in 10.0 mi Calm Calm - N/A   Scattered Clouds
8:50 PM 51.8 °F - 39.2 °F 62% 30.12 in 10.0 mi Calm Calm - N/A   Scattered Clouds
9:50 PM 50.0 °F - 39.2 °F 66% 30.11 in 10.0 mi ESE 3.5 mph - N/A   Scattered Clouds
10:50 PM 44.6 °F - 41.0 °F 87% 30.11 in 10.0 mi Calm Calm - N/A   Scattered Clouds
11:50 PM 44.6 °F - 41.0 °F 87% 30.10 in 10.0 mi Calm Calm - N/A   Mostly Cloudy